Location: Newark
(39.5667°N, 8.9833°E)
Time: 19:47:30
(UTC+00:00)

S-56A Canister/Altair - All Passes

Search period start: 21 October 2019 00:00
Search period end: 31 October 2019 00:00
Orbit: 633 x 2499 km, 38.9° (Epoch: 20 October)

Date Brightness Start Highest point End Pass type
(mag) Time Alt. Az. Time Alt. Az. Time Alt. Az.
21 Oct - 01:35:14 10° SW 01:40:42 54° SSE 01:48:46 10° E visible
21 Oct - 03:38:01 10° W 03:44:56 86° S 03:55:47 10° E visible
21 Oct - 05:41:30 10° W 05:50:10 72° SSW 06:03:09 10° ESE daylight
21 Oct - 07:45:50 10° W 07:55:34 40° SSW 08:08:21 10° SSE daylight
21 Oct - 09:54:33 10° WSW 10:00:31 14° SW 10:07:00 10° SSW daylight
22 Oct - 01:03:01 10° SW 01:08:05 46° SSE 01:15:19 10° E visible
22 Oct - 03:05:36 10° W 03:12:03 85° S 03:22:05 10° E visible
22 Oct - 05:08:57 10° W 05:17:02 75° SSW 05:29:24 10° ESE visible
22 Oct - 07:13:00 10° W 07:22:19 43° SSW 07:35:01 10° SE daylight
22 Oct - 09:20:33 10° WSW 09:27:20 16° SW 09:34:59 10° SSW daylight
23 Oct - 00:30:51 10° SW 00:35:32 39° SSE 00:41:57 10° E visible
23 Oct - 02:33:12 10° W 02:39:13 83° S 02:48:28 10° E visible
23 Oct - 04:36:28 10° W 04:43:59 78° SSW 04:55:39 10° ESE visible
23 Oct - 06:40:16 10° W 06:49:08 46° SSW 07:01:35 10° SE daylight
23 Oct - 08:46:55 10° W 08:54:09 19° SW 09:02:36 10° S daylight
23 Oct - 23:58:43 10° SSW 00:03:02 32° SSE 00:08:38 10° E visible
24 Oct - 02:00:51 10° WSW 02:06:27 80° S 02:14:55 10° E visible
24 Oct - 04:04:00 10° W 04:11:00 80° S 04:21:56 10° ESE visible
24 Oct - 06:07:37 10° W 06:15:59 49° SSW 06:28:06 10° SE daylight
24 Oct - 08:13:33 10° W 08:21:00 21° SW 08:29:58 10° S daylight
24 Oct - 23:26:39 10° SSW 23:30:34 26° SE 23:35:22 10° E night (unlit)
25 Oct - 01:28:29 10° WSW 01:33:45 75° SSE 01:41:30 10° E visible
25 Oct - 03:31:34 10° W 03:38:06 82° S 03:48:15 10° ESE visible
25 Oct - 05:35:01 10° W 05:42:54 52° SSW 05:54:34 10° SE daylight
25 Oct - 07:40:23 10° W 07:47:52 23° SW 07:57:10 10° S daylight
25 Oct - 22:54:39 10° SSW 22:58:07 21° SE 23:02:08 10° E night (unlit)
26 Oct - 00:56:09 10° WSW 01:01:06 70° SSE 01:08:09 10° E visible
26 Oct - 02:59:10 10° W 03:05:15 84° S 03:14:38 10° E visible
26 Oct - 05:02:30 10° W 05:09:53 54° SSW 05:21:02 10° SE visible
26 Oct - 07:07:22 10° W 07:14:45 25° SW 07:24:14 10° SSE daylight
26 Oct - 22:22:45 10° S 22:25:40 17° SE 22:28:52 10° ESE night (unlit)
27 Oct - 00:23:49 10° WSW 00:28:31 63° SSE 00:34:55 10° E visible
27 Oct - 02:26:47 10° W 02:32:28 85° S 02:41:05 10° E visible
27 Oct - 04:30:01 10° W 04:36:56 57° SSW 04:47:29 10° SE visible
27 Oct - 06:34:30 10° W 06:41:42 26° SSW 06:51:11 10° SSE daylight
27 Oct - 21:51:01 10° S 21:53:13 13° SE 21:55:29 10° ESE night (unlit)
27 Oct - 23:51:30 10° WSW 23:55:59 56° SSE 00:01:48 10° E night (unlit)
28 Oct - 01:54:24 10° W 01:59:45 86° S 02:07:38 10° E visible
28 Oct - 03:57:33 10° W 04:04:03 60° SSW 04:13:57 10° ESE visible
28 Oct - 06:01:43 10° W 06:08:40 28° SSW 06:18:03 10° SSE daylight
28 Oct - 21:19:53 10° SSE 21:20:44 10° SE 21:21:35 10° SE night (unlit)
28 Oct - 23:19:10 10° SW 23:23:28 48° SSE 23:28:45 10° E night (unlit)
29 Oct - 01:22:02 10° W 01:27:04 85° S 01:34:17 10° E visible
29 Oct - 03:25:09 10° W 03:31:13 63° SSW 03:40:27 10° ESE visible
29 Oct - 05:29:03 10° W 05:35:41 30° SSW 05:44:52 10° SSE daylight
29 Oct - 22:46:49 10° SW 22:51:00 41° SSE 22:55:48 10° E night (unlit)
30 Oct - 00:49:38 10° W 00:54:26 84° S 01:01:02 10° E visible
30 Oct - 02:52:45 10° W 02:58:27 66° SSW 03:07:01 10° ESE visible
30 Oct - 04:56:26 10° W 05:02:46 32° SSW 05:11:39 10° SSE visible
30 Oct - 22:14:28 10° SW 22:18:32 35° SSE 22:22:55 10° E night (unlit)
